Tracking 19286 objects as of 19-Nov-2018
HD Live streaming from Space Station
objects crossing your sky now

METEOR 2-11 DEB

Track METEOR 2-11 DEB now!
10-day predictions


NORAD ID: 40317
Int'l Code: 1984-072C
Perigee: 926.2 km
Apogee: 956.3 km
Inclination: 82.5 °
Period: 103.7 minutes
Semi major axis: 7312 km
RCS: Unknown
Launch date: July 5, 1984
Source: Commonwealth of Independent States (former USSR) (CIS)
Launch site: PLESETSK MISSILE AND SPACE COMPLEX (PKMTR)

Note: This is SATELLITE DEBRIS
aabbcc
Your satellite tracking list
Your tracking list is empty




NASA's NSSDC Master Catalog

Two Line Element Set (TLE):
1 40317U 84072C   18323.05586021  .00000831  00000-0  67974-3 0  9998
2 40317  82.5265  80.6283 0020621 353.9651   6.1260 13.88431708200993
Source of the keplerian elements: AFSPC